默认 日期 大小 文件数 浏览量 最新下载 xml
hells磁力链接相关资源由用户搜索指令自动获取,结果来源于网络,本站不存储任何资料,亦不承担任何责任,请于24小时内删除,搜索到3097个磁力,用时10ms。
    ... PDTV.x264-LOL.mp4": 338439824, "Hells.Kitchen.US.S10E02.PDTV.x264 ... -LOL.mp4": 348444651, "Hells.Kitchen.US.S10E03.PDTV.x264 ... -LOL.mp4": 377782474, "Hells.Kitchen.US.S10E04.PDTV.x264 ... -LOL.mp4": 358574923, "Hells.Kitchen.US.S10E05.PDTV.x264 ...
创建时间: 2018-11-12 00:50:37 大小:6.4 GB 文件数量:20 热度:10 最近下载:2025-07-27 13:36:01
    {"RARBG.txt": 30, "Hells.Kitchen.US.S17E10.Its.All.Gravy.720p.HULU.WEB-DL.AAC2.0.H.264-AJP69.mkv": 1018874710}
创建时间: 2018-11-16 13:57:10 大小:971.67 MB 文件数量:2 热度:10 最近下载:2025-01-27 02:50:08
    ... .png": 272841, "screen0004.png": 265827}, "Hells.Kitchen.US.S18E02.480p.x264 ... -mSD.mkv": 253930134, "Hells.Kitchen.US.S18E02.480p.x264 ...
创建时间: 2018-11-19 00:10:00 大小:243.19 MB 文件数量:7 热度:10 最近下载:2023-04-17 02:30:04
    {"RARBG.txt": 30, "Hells.Kitchen.US.S18E01.Rookies.vs.Veterans.1080p.Hulu.WEB-DL.AAC2.0.H.264-QOQ.mkv": 1942165462}
创建时间: 2018-11-19 03:48:34 大小:1.81 GB 文件数量:2 热度:10 最近下载:2023-04-17 09:30:06
    ... www.torrenting.com.txt": 86, "Hells.Kitchen.US.S18E07.720p.HEVC ... .x265-MeGusta.mkv": 529470811, "Hells.Kitchen.US.S18E07.720p.HEVC ...
创建时间: 2018-11-19 10:53:18 大小:508.92 MB 文件数量:7 热度:10 最近下载:2023-04-17 13:40:05
    {"hells.kitchen.us.1414.hr-dimension.nfo": 237, "Torrent-Downloaded-From-extratorrent.cc.txt": 172, "Hells.Kitchen.US.S14E14.HR.WS.PDTV.X264-DIMENSION.mkv": 931854855}
创建时间: 2018-11-21 17:16:26 大小:888.69 MB 文件数量:3 热度:10 最近下载:2024-12-21 17:43:01
    {"RARBG.txt": 30, "hells.kitchen.us.s17e10.720p.web.x264-tbs.mkv": 1126360325, "hells.kitchen.us.s17e10.720p.web.x264-tbs.nfo": 52}
创建时间: 2018-11-22 02:31:30 大小:1.05 GB 文件数量:3 热度:10 最近下载:2023-04-18 11:10:03
    {"RARBG.txt": 30, "hells.kitchen.us.s17e10.hdtv.x264-w4f.mkv": 431215066, "hells.kitchen.us.s17e10.hdtv.x264-w4f.nfo": 5823}
创建时间: 2018-11-25 13:43:40 大小:411.24 MB 文件数量:3 热度:10 最近下载:2023-04-19 10:00:04
    ... WEB.KinoGolos.mkv": 1365406295, "Hells.Kitchen.US.S18E02.720p.WEB ... .KinoGolos.mkv": 1363374587, "Hells.Kitchen.US.S18E03.720p.WEB ... .KinoGolos.mkv": 1361161281, "Hells.Kitchen.US.S18E04.720p.WEB ... .KinoGolos.mkv": 1360994485, "Hells.Kitchen.US.S18E05.720p.WEB ...
创建时间: 2018-12-04 00:31:00 大小:8.89 GB 文件数量:7 热度:10 最近下载:2025-05-22 04:32:02
    {"RARBG.txt": 31, "Hells.Kitty.2018.720p.AMZN.WEB-DL.DDP5.1.H.264-NTG.mkv": 2254858760}
创建时间: 2018-12-04 22:08:10 大小:2.1 GB 文件数量:2 热度:10 最近下载:2025-08-02 07:49:08
    {"RARBG.txt": 31, "Hells.Kitty.2018.1080p.AMZN.WEB-DL.DDP5.1.H.264-NTG.mkv": 4973517006}
创建时间: 2018-12-07 03:58:50 大小:4.63 GB 文件数量:2 热度:10 最近下载:2025-08-01 02:28:03
    {"Enduro.Kings.Metzger.Journey.to.Genova.and.Hells.Gate.2011.SpeedHD.720P.h264.English.mp4": 1127088661}
创建时间: 2018-12-07 14:38:50 大小:1.05 GB 文件数量:1 热度:10 最近下载:2024-12-31 16:32:01
    {"RARBG.com.txt": 34, "hells.kitchen.1210.pdtv-lol.mp4": 416374843, "hells.kitchen.us.1210.pdtv-lol.nfo": 4359}
创建时间: 2018-12-18 23:25:54 大小:397.09 MB 文件数量:3 热度:10 最近下载:2022-04-23 06:43:05
    {"RARBG.txt": 30, "Criminal.Minds.S12E18.Hells.Kitchen.1080p.WEB-DL.DD5.1.H264-LiebeHD.mkv": 1778800359, "Criminal.Minds.S12E18.Hells.Kitchen.1080p.WEB-DL.DD5.1.H264-LiebeHD.srt": 54867}
创建时间: 2018-12-21 08:30:12 大小:1.66 GB 文件数量:3 热度:10 最近下载:2022-04-23 06:16:52
    ... WWW.TORRENTING.COM.txt": 84, "Hells.Kitchen.US.S17E09.1080p.HEVC ... .x265-MeGusta.mkv": 1160208654, "Hells.Kitchen.US.S17E09.1080p.HEVC ...
创建时间: 2018-12-24 19:40:23 大小:1.09 GB 文件数量:7 热度:10 最近下载:2023-04-14 12:30:07
    ... S16E01.720p.ViruseProject.mkv": 1106996518, "Hells.Kitchen.US.S16E02.720p.ViruseProject ... .mkv": 1107085047, "Hells.Kitchen.US.S16E03.720p.ViruseProject ... .mkv": 1107474204, "Hells.Kitchen.US.S16E04.720p.ViruseProject ...
创建时间: 2018-12-25 10:23:40 大小:13.34 GB 文件数量:13 热度:10 最近下载:2023-04-15 10:20:08
    {"RARBG.com.txt": 34, "hells.kitchen.us.1510.720p-dimension.nfo": 518, "Hells.Kitchen.US.S15E10.720p.HDTV.X264-DIMENSION.mkv": 1897016254}
创建时间: 2018-12-25 18:54:45 大小:1.77 GB 文件数量:3 热度:10 最近下载:2023-04-15 18:20:05
    {"RARBG.txt": 30, "Hells.Kitchen.US.S17E14.Families.Come.to.Hell.1080p.HULU.WEB-DL.AAC2.0.H.264-AJP69.mkv": 1940715472}
创建时间: 2018-12-28 11:07:53 大小:1.81 GB 文件数量:2 热度:10 最近下载:2025-10-01 18:44:04
    {"[Shiniori-Raws] Hells Angels The Movie (BD 1280x720x264 AAC).mp4": 2060739627, "[Shiniori-Raws] Hells Angels The Movie (BD 1280x720x264 AAC)-English Subtitle.srt": 116374}
创建时间: 2019-01-29 07:32:44 大小:1.92 GB 文件数量:2 热度:10 最近下载:2025-08-01 20:26:04
    {"RARBG.txt": 30, "Hells.Kitchen.US.S17E13.Stars.Heating.Up.Hell.720p.HULU.WEB-DL.AAC2.0.H.264-AJP69.mkv": 1009692549}
创建时间: 2019-02-03 18:56:30 大小:962.92 MB 文件数量:2 热度:10 最近下载:2022-11-12 08:39:57